This demonstration page uses our WeatherBlox Daily Observations layout. Learn more.

Left ArrowRight Arrow

44.8408, -93.29828

Hourly Observations for September 19, 2022

Temp ( °F °C ) Dew Point ( °F °C ) Humidity (%) Winds ( mph kmh ) Pressure ( in mb ) Visibility ( mi km ) Precip ( " mm )
12:53 am 00:53 Mostly Clear with Mist and Fog 60 15.6 57 13.9 90 90 Calm 29.97 1015 6 10 0.00 0.00
1:53 am 01:53 Mostly Clear 59 15 56 13.3 90 90 Calm 29.97 1015 7 11 0.00 0.00
2:33 am 02:33 Mostly Clear with Mist and Fog 57 13.9 55 12.8 93 93 Calm 29.98 1015 2 3 0.00 0.00
2:40 am 02:40 Mostly Clear with Mist and Fog 57 13.9 55 12.8 93 93 Calm 29.98 1015 6 10 0.00 0.00
2:53 am 02:53 Mostly Clear with Mist and Fog 57 13.9 55 12.8 93 93 Calm 29.97 1015 5 8 0.00 0.00
3:53 am 03:53 Mostly Clear with Mist and Fog 56 13.3 54 12.2 93 93 Calm 29.98 1015 6 10 0.00 0.00
4:26 am 04:26 Mostly Clear with Mist and Fog 57 13.9 54 12.2 89 89 Calm 29.98 1015 6 10 0.00 0.00
4:39 am 04:39 Mostly Clear with Mist and Fog 56 13.3 54 12.2 93 93 Calm 29.98 1015 6 10 0.00 0.00
4:53 am 04:53 Mostly Clear with Mist and Fog 55 12.8 53 11.7 93 93 SE 3 6 29.98 1015 6 10 0.00 0.00
5:19 am 05:19 Partly Cloudy with Mist and Fog 55 12.8 53 11.7 93 93 Calm 29.99 1016 1 2 0.00 0.00
5:53 am 05:53 Mostly Cloudy with Fog 54 12.2 53 11.7 97 97 Calm 29.99 1016 1 1 0.00 0.00
5:55 am 05:55 Mostly Clear with Fog 54 12.2 53 11.7 97 97 Calm 30.00 1016 0 0 0.00 0.00
6:18 am 06:18 Mostly Clear with Fog 55 12.8 53 11.7 93 93 SSE 3 6 30.00 1016 0 0 0.00 0.00
6:29 am 06:29 Mostly Cloudy with Mist and Fog 55 12.8 53 11.7 93 93 S 5 7 30.00 1016 2 3 0.00 0.00
6:36 am 06:36 Mostly Clear with Mist and Fog 55 12.8 54 12.2 96 96 S 3 6 30.00 1016 3 5 0.00 0.00
6:53 am 06:53 Mostly Clear with Mist and Fog 55 12.8 54 12.2 96 96 Calm 30.00 1016 4 6 0.00 0.00
7:53 am 07:53 Partly Cloudy with Patchy Fog 57 13.9 55 12.8 93 93 S 3 6 30.01 1016 6 10 0.00 0.00
8:53 am 08:53 Sunny 60 15.6 57 13.9 90 90 SE 5 7 30.02 1017 7 11 0.00 0.00
9:53 am 09:53 Mostly Sunny 64 17.8 58 14.4 80 80 SE 6 9 30.01 1016 10 16 0.00 0.00
10:53 am 10:53 Mostly Sunny 70 21.1 58 14.4 66 66 S 7 11 30.01 1016 10 16 0.00 0.00
11:53 am 11:53 Mostly Sunny 74 23.3 55 12.8 52 52 SSE 8 13 30.01 1016 10 16 0.00 0.00
12:53 pm 12:53 Mostly Sunny 78 25.6 54 12.2 43 43 SSE 13 20 29.98 1015 10 16 0.00 0.00
1:53 pm 13:53 Mostly Sunny 79 26.1 53 11.7 41 41 SE 13 20 29.96 1015 10 16 0.00 0.00
2:53 pm 14:53 Mostly Sunny 81 27.2 51 10.6 35 35 S 9 15 29.93 1014 10 16 0.00 0.00
3:53 pm 15:53 Mostly Sunny 81 27.2 51 10.6 35 35 SE 12 19 29.91 1013 10 16 0.00 0.00
4:53 pm 16:53 Mostly Sunny 81 27.2 51 10.6 35 35 S 10 17 29.90 1013 10 16 0.00 0.00
5:53 pm 17:53 Mostly Sunny 80 26.7 53 11.7 39 39 S 12 19 29.90 1013 10 16 0.00 0.00
6:53 pm 18:53 Partly Cloudy 76 24.4 53 11.7 45 45 SSE 8 13 29.89 1012 10 16 0.00 0.00
7:43 pm 19:43 Mostly Cloudy with Thunderstorms 75 23.9 53 11.7 46 46 SE 10 17 29.84 1010 10 16 0.00 0.00
7:53 pm 19:53 Mostly Cloudy with Thunderstorms 75 23.9 53 11.7 46 46 SE 9 15 29.87 1011 10 16 0.00 0.00
8:06 pm 20:06 Mostly Cloudy 75 23.9 53 11.7 46 46 ESE 9 15 29.85 1011 10 16 0.00 0.00
8:53 pm 20:53 Partly Cloudy 73 22.8 55 12.8 53 53 SSE 9 15 29.88 1012 10 16 0.00 0.00
9:53 pm 21:53 Mostly Clear 71 21.7 55 12.8 57 57 SSE 7 11 29.88 1012 10 16 0.00 0.00
10:53 pm 22:53 Mostly Clear 70 21.1 56 13.3 61 61 SE 7 11 29.88 1012 10 16 0.00 0.00
11:53 pm 23:53 Cloudy 70 21.1 56 13.3 61 61 SE 9 15 29.85 1011 10 16 0.00 0.00

Powered by AerisWeather